Location: Campolattaro
(41.2833°N, 14.7333°E)
Time: 20:09:14
(UTC+00:00)

Resurs 01 Rocket - Pass Details

Date: 19 May 2025
Orbit: 627 x 637 km, 97.7° (Epoch: 20 June)

Event Time Altitude Azimuth Distance (km) Brightness Sun altitude
Rises 19:08:25 0° 191° (SSW) 2,912 4.8 -9.0°
Reaches altitude 10° 19:10:50 10° 202° (SSW) 2,007 4.0 -9.4°
Maximum altitude 19:14:40 30° 264° (W) 1,143 3.5 -9.9°
Drops below altitude 10° 19:18:32 10° 326° (NW) 2,016 5.5 -10.5°
Sets 19:20:58 0° 337° (NNW) 2,927 6.2 -10.9°
